sat.trackr.live / text

‹ back to catalog

STARLINK-5398

NORAD 54866 · 2022-177AY

PAYLOAD ACTIVE UNKNOWN

§ Identity

Operator
Country
US
Launch date
2022-12-28
Launch site
AFETR
Launch vehicle
Mass (kg)
RCS (m²)

Purposes: comms

External: N2YO · Heavens-Above · Gunter

§ Orbital elements

Epoch: 2026-09-20T22:08:57.395328Z

Period
94.27 min
Inclination
43.0039°
Eccentricity
0.0001288
Mean motion
15.27576115 rev/d
Perigee alt
482.2 km
Apogee alt
483.9 km
Semi-major
6,861.2 km
B*
1.1162e-5
RAAN
98.6077°
Arg perigee
266.1561°
Mean anomaly
93.9144°
Rev number
20,695

§ Raw data

STARLINK-53981 54866U 22177AY  26263.92288652  .00000045  00000+0  11162-4 0  99922 54866  43.0039  98.6077 0001288 266.1561  93.9144 15.27576115206955

JSON: /api/v1/satellites/54866 · /tle

For live sub-satellite position, see the globe view (requires WebGL).

§ Visibility from observer

Set your observer location to see the next 7 days of passes ≥ 10°. The values pass through the URL so the page stays shareable.

No JS? Fill the form by hand. The geolocation button needs JavaScript.